Location: Izdebno
(52.6670°N, 16.2170°E)
Time: 05:23:31
(UTC+01:00)

Tiros 1 despin weight - Visible Passes

Search period start: 30 January 2023 00:00
Search period end: 09 February 2023 00:00
Orbit: 589 x 636 km, 48.2° (Epoch: 29 January)

Date Brightness Start Highest point End Pass type
(mag) Time Alt. Az. Time Alt. Az. Time Alt. Az.
30 Jan ? 18:35:53 10° SW 18:39:55 33° SSE 18:40:54 29° SE visible
30 Jan ? 20:16:34 10° WSW 20:17:51 18° WSW 20:17:51 18° WSW visible
31 Jan ? 18:50:15 10° WSW 18:54:30 41° SSE 18:55:08 38° SE visible
31 Jan ? 20:31:14 10° W 20:32:05 15° WSW 20:32:05 15° WSW visible
01 Feb ? 17:24:24 10° SSW 17:28:14 27° SSE 17:32:02 10° E visible
01 Feb ? 19:04:47 10° WSW 19:09:07 47° S 19:09:21 46° SSE visible
01 Feb ? 20:45:56 10° W 20:46:18 12° W 20:46:18 12° W visible
02 Feb ? 17:38:36 10° SW 17:42:46 35° SSE 17:46:36 11° E visible
02 Feb ? 19:19:24 10° WSW 19:23:33 48° S 19:23:33 48° S visible
03 Feb ? 17:53:01 10° WSW 17:57:20 43° S 18:00:48 15° ESE visible
03 Feb ? 19:34:04 10° W 19:37:44 42° SW 19:37:44 42° SW visible
04 Feb ? 18:07:34 10° WSW 18:11:57 48° S 18:15:00 18° ESE visible
04 Feb ? 19:48:47 10° W 19:51:57 33° SW 19:51:57 33° SW visible
05 Feb ? 18:22:12 10° WSW 18:26:34 48° S 18:29:13 22° ESE visible
05 Feb ? 20:03:34 10° W 20:06:10 25° SW 20:06:10 25° SW visible
06 Feb ? 18:36:52 10° W 18:41:11 43° S 18:43:28 24° SE visible
06 Feb ? 20:18:31 10° W 20:20:25 18° WSW 20:20:25 18° WSW visible
07 Feb ? 18:51:35 10° W 18:55:44 35° SSW 18:57:47 23° SSE visible
07 Feb ? 20:33:53 10° WSW 20:34:44 12° WSW 20:34:44 12° WSW visible
08 Feb ? 17:24:57 10° W 17:29:21 47° S 17:33:41 10° ESE visible
08 Feb ? 19:06:24 10° W 19:10:13 27° SSW 19:12:09 20° SSE visible
